Location: Flynn Junction
(40.1314°N, 99.5162°W)
Time: 20:43:43
(UTC+00:00)

PSLV R/B - Pass Details

Date: 29 October 2020
Orbit: 504 x 578 km, 97.8° (Epoch: 30 November)

Event Time Altitude Azimuth Distance (km) Brightness Sun altitude
Rises 12:24:00 0° 11° (N) 2,803 7.4 -8.4°
Reaches altitude 10° 12:26:10 10° 11° (N) 1,900 6.6 -8.0°
Maximum altitude 12:30:18 84° 284° (WNW) 586 3.9 -7.2°
Drops below altitude 10° 12:34:22 10° 196° (SSW) 1,873 6.5 -6.4°
Sets 12:36:29 0° 196° (SSW) 2,759 7.4 -6.0°
